Location: Huntsville
(41.2590°N, 111.7678°W)
Time: 13:12:33
(UTC+00:00)

Courier 1B Rocket - All Passes

Search period start: 14 June 2021 00:00
Search period end: 24 June 2021 00:00
Orbit: 920 x 1202 km, 28.2° (Epoch: 13 June)

Date Brightness Start Highest point End Pass type
(mag) Time Alt. Az. Time Alt. Az. Time Alt. Az.
14 Jun - 04:01:33 10° SSW 04:05:04 15° SSE 04:08:31 10° SE visible
14 Jun - 05:52:39 10° SW 05:57:30 24° S 06:02:21 10° SE visible
14 Jun - 07:45:22 10° WSW 07:50:00 22° S 07:54:43 10° SE night (unlit)
14 Jun - 09:40:15 10° SW 09:42:25 12° SSW 09:44:36 10° S visible
15 Jun - 03:02:10 10° S 03:04:22 12° SSE 03:06:32 10° SE daylight
15 Jun - 04:52:04 10° SW 04:56:45 22° S 05:01:24 10° ESE visible
15 Jun - 06:44:26 10° SW 06:49:15 24° S 06:54:07 10° SE visible
15 Jun - 08:38:15 10° SW 08:41:42 15° SSW 08:45:12 10° SSE night (unlit)
16 Jun - 03:51:38 10° SSW 03:56:02 19° SSE 04:00:20 10° ESE visible
16 Jun - 05:43:34 10° SW 05:48:32 24° S 05:53:26 10° SE visible
16 Jun - 07:36:51 10° WSW 07:41:00 19° SSW 07:45:11 10° SSE night (unlit)
17 Jun - 02:51:26 10° SSW 02:55:18 16° SSE 02:59:03 10° SE daylight
17 Jun - 04:42:47 10° SW 04:47:47 24° S 04:52:40 10° SE visible
17 Jun - 06:35:41 10° WSW 06:40:17 21° S 06:44:52 10° SE visible
17 Jun - 08:31:04 10° SW 08:32:38 11° SSW 08:34:13 10° S night (unlit)
18 Jun - 01:51:43 10° S 01:54:33 13° SSE 01:57:20 10° SE daylight
18 Jun - 03:42:06 10° SW 03:47:02 23° S 03:51:48 10° ESE visible
18 Jun - 05:34:38 10° WSW 05:39:33 24° S 05:44:23 10° SE visible
18 Jun - 07:28:41 10° SW 07:31:58 15° SSW 07:35:14 10° SSE night (unlit)
19 Jun - 02:41:31 10° SSW 02:46:15 20° SSE 02:50:49 10° ESE daylight
19 Jun - 04:33:40 10° SW 04:38:48 25° S 04:43:48 10° SE visible
19 Jun - 06:27:08 10° WSW 06:31:16 18° SSW 06:35:22 10° SSE visible
20 Jun - 01:41:09 10° SSW 01:45:28 18° SSE 01:49:38 10° SE daylight
20 Jun - 03:32:46 10° SW 03:38:02 25° S 03:43:06 10° SE visible
20 Jun - 05:25:50 10° WSW 05:30:34 22° S 05:35:10 10° SE visible
20 Jun - 07:21:40 10° SW 07:22:53 11° SSW 07:24:06 10° SSW visible
21 Jun - 00:41:11 10° S 00:44:41 14° SSE 00:48:04 10° SE daylight
21 Jun - 02:31:57 10° SW 02:37:14 24° S 02:42:17 10° ESE daylight
21 Jun - 04:24:40 10° WSW 04:29:49 24° S 04:34:46 10° SE visible
21 Jun - 06:18:55 10° SW 06:22:13 15° SSW 06:25:28 10° SSE visible
21 Jun - 23:42:20 10° SSE 23:43:52 11° SSE 23:45:24 10° SE daylight
22 Jun - 01:31:15 10° SW 01:36:24 22° SSE 01:41:19 10° ESE daylight
22 Jun - 03:23:35 10° SW 03:29:02 26° S 03:34:13 10° SE daylight
22 Jun - 05:17:13 10° WSW 05:21:31 19° SSW 05:25:44 10° SSE visible
23 Jun - 00:30:46 10° SSW 00:35:34 19° SSE 00:40:10 10° ESE daylight
23 Jun - 02:22:35 10° SW 02:28:13 26° S 02:33:33 10° ESE daylight
23 Jun - 04:15:48 10° WSW 04:20:48 22° SSW 04:25:36 10° SE visible
23 Jun - 06:11:46 10° SW 06:13:07 11° SSW 06:14:26 10° SSW visible
23 Jun - 23:30:38 10° SSW 23:34:43 16° SSE 23:38:40 10° SE daylight
